Regional Weather Roundup
Issued by NWS

Home | Current Version | Previous Version | Text Only | Print | Product List | Glossary On
Versions: 1 2 3 4 5 6 7 8 9 10 11 12 13 14 15 16 17 18 19 20 21 22 23 24 25 26 27 28 29 30 31 32 33 34 35 36 37 38 39 40 41 42 43 44 45 46 47 48 49 50
000
ASHW40 PHFO 222343
RWRHI

WEATHER ROUNDUP FOR HAWAII
NATIONAL WEATHER SERVICE HONOLULU HI
100 PM HST FRI MAY 22 2015

THIS IS AN AUTOMATED REPORT THAT HAS NOT BEEN QUALITY CONTROLLED.

NOTE..."FAIR" INDICATES FEW OR NO CLOUDS BELOW 12,000 FEET WITH NO
SIGNIFICANT WEATHER AND/OR OBSTRUCTIONS TO VISIBILITY.

* - THESE SITES REPORT LIMITED FIELDS

HIZ001>004-230000-
KAUAI-NIIHAU-

CITY           SKY/WX    TMP DP  RH WIND       PRES   REMARKS
LIHUE APT      LGT RAIN  73  67  81 N14       30.00S
PORT ALLEN*      N/A     82 N/A N/A SE7G14      N/A
POIPU*           N/A     81 N/A N/A E5G10       N/A
PRINCEVILLE*     N/A     77 N/A N/A MISG        N/A
KOKOLE POINT*  NOT AVBL
MOLOAA DAIRY*  NOT AVBL
WAIMEA HTS*      N/A     86  63  45 S6G12       N/A
PUU OPAE*        N/A     73  63  68 N8G15       N/A
PUU LUA*       NOT AVBL
MAKAHA RIDGE*    N/A     79  66  65 N3          N/A
$$

HIZ005>011-230000-
OAHU-

CITY           SKY/WX    TMP DP  RH WIND       PRES   REMARKS
HONOLULU       MOSUNNY   84  68  58 SW13      29.95F
KALAELOA       MOSUNNY   83  65  54 W14       29.97F
KANEOHE MCB    CLOUDY    80  67  64 N9        29.94F
WHEELER FIELD  PTSUNNY   78  65  64 NW13      29.97S
BELLOWS*         N/A    N/A N/A N/A NE6         N/A
KAHUKU*          N/A    N/A N/A N/A NW6G15      N/A
WHEELER*       NOT AVBL
WAIANAE HARBOR NOT AVBL
DILLINGHAM*      N/A     90  68  48 MISG        N/A  HX  93
KAHUKU TRN*      N/A     66  50  55 NW5G16      N/A
KAWAILOA*        N/A     81  63  54 NW3G13      N/A
KII*             N/A     81  68  65 NW12G18     N/A
MAKUA RANGE*     N/A     84  68  58 W3G10       N/A
OAHU FOREST NW   N/A    N/A N/A N/A CALM        N/A
SCHOFIELD BRK*   N/A     63  57  82 MISG        N/A
SCHOFIELD S*   NOT AVBL
WAIANAE VLY*     N/A     73  64  73 N6          N/A
KUAOKALA*        N/A     75  66  73 N10G16      N/A
HONOULIUULI*   NOT AVBL
MOKUOLOE IS*     N/A    N/A N/A N/A MISG        N/A
PALEHUA*         N/A     75  63  64 SW5G12      N/A
WAIAWA PHB*    NOT AVBL
$$

HIZ012>013-230000-
MOLOKAI-

CITY           SKY/WX    TMP DP  RH WIND       PRES   REMARKS
MOLOKAI AIRPT  SUNNY     83  62  49 N8G16     29.98S
KALAUPAPA      NOT AVBL
MAKAPULAPAI*     N/A     84  64  51 NW6G12      N/A
MOLOKAI 1*       N/A     73  63  68 W2          N/A
PUU ALII*        N/A     66  64  94 CALM        N/A
$$

HIZ016-230000-
KAHOOLAWE-

CITY           SKY/WX    TMP DP  RH WIND       PRES   REMARKS
KAHOOLAWE*       N/A     73 N/A N/A S3G13       N/A
HAKIOAWA*        N/A     79  68  69 MISG        N/A
HONOKANAIA*      N/A     83  66  56 S6        29.98
KANELOA*         N/A     77  66  69 S8        30.04F
KEALIALALO*      N/A     81  66  61 SW10G18   29.97F
LUA MAKIKA*    NOT AVBL
$$

HIZ014>015-230000-
LANAI-

CITY           SKY/WX    TMP DP  RH WIND       PRES   REMARKS
LANAI CITY     FAIR      75  66  73 NW10      30.02F
LANAI 1*         N/A     79  66  65 SW9G16      N/A
$$

HIZ017>028-230000-
MAUI-

CITY           SKY/WX    TMP DP  RH WIND       PRES   REMARKS
KAHULUI        MOSUNNY   84  70  62 N12       29.97S
KAPALUA-W MAUI MOSUNNY   81  64  57 W7        29.98S
HANA AIRPORT   CLOUDY    79  63  57 CALM      29.99S
HANA*            N/A     79 N/A N/A NE9         N/A
HALEAKALA SUMM   N/A     50  37  62 W9          N/A
MAALAEA BAY*   NOT AVBL
HALEAKALA*     NOT AVBL
KAUPO GAP*       N/A     64  59  82 S2G8        N/A
KULA 1*          N/A     61  51  70 NW6         N/A
$$

HIZ023>026-230000-
BIG ISLAND OF HAWAII COAST AND LOWER SLOPES-

CITY           SKY/WX    TMP DP  RH WIND       PRES   REMARKS
KAILUA KONA    CLOUDY    82  64  54 SW9       29.96F
HILO           PTSUNNY   80  65  59 E8        29.96S
HONOKAA*       NOT AVBL
KAWAIHAE MWT*    N/A     79 N/A N/A W9          N/A
KAWAIHAE*        N/A     79 N/A N/A W3          N/A
SOUTH POINT*     N/A     75 N/A N/A S8G15       N/A
UPOLU AIRPORT*   N/A    N/A N/A N/A W12         N/A
KAMUELA*       NOT AVBL
HAKALAU*         N/A     58  54  87 E3G9        N/A
KALOKO-HONOKO*   N/A     81  68  65 SW10      29.95F
PALI 2*          N/A     66  63  88 S7G16       N/A
KEALAKOMO*       N/A     88  72  58 S10         N/A  HX  94
KAUPULEHU*       N/A    N/A N/A N/A W12G20      N/A
KAPAPALA*        N/A     69  64  84 S7          N/A
LOWER KAHUKU*    N/A     64  63  94 S2          N/A
PUHE CS*         N/A     81  68  65 W3G12       N/A
PUHO CS*         N/A     81  67  62 SW3         N/A
PTA KEAMUKU*     N/A     66  63  88 CALM        N/A
WAIKOLOA*        N/A     79  66  65 W7G16       N/A
$$

HIZ027>028-230000-
BIG ISLAND OF HAWAII INTERIOR AND SUMMMITS-

CITY           SKY/WX    TMP DP  RH WIND       PRES   REMARKS
BRADSHAW FIELD MOSUNNY   67  51  55 W7G21     30.26F
MK VISITOR CEN NOT AVBL
MAUNA KEA*       N/A     43   7  22 N16G31      N/A
MAUNA LOA*       N/A     52  36  54 MISG        N/A
MAUNA LOA 1*   NOT AVBL
PTA KIPUKA*      N/A     64  57  77 NW7G17      N/A
PTA RANGE 17*    N/A     46  37  71 NW12        N/A
PTA WEST*        N/A    N/A N/A N/A NW8G14      N/A
NENE CABIN*      N/A     54 N/A N/A S3G9        N/A
AHUMOA*          N/A     59  51  76 W6G14       N/A
PTA PORTABLE*  NOT AVBL
PUU MALI*        N/A     54  52  94 W9G17       N/A
$$

HIC003-230000-
NORTHWEST ISLANDS-

CITY           SKY/WX    TMP DP  RH WIND       PRES   REMARKS
MIDWAY ISLAND  SUNNY    N/A N/A N/A NE12      30.25F
MIDWAY NOS*    NOT AVBL
FRENCH FRIGATE NOT AVBL
$$

PHZ110>124-180-230000-
BUOY REPORTS

STATION/POSITION TIME  TEMP    WIND        PRES    WAVE   SWELL
                       AIR SEA DIR/SP/G            HT/PER HT/DIR
                 (UTC) (F)     (DEG/KT/KT) (MB)    (FT/S) (FT/D)
BUOY 51001       NOT AVBL
BUOY 51101       2300   72 76   50/ 17/ 19 1017.0F   7/ 8   5/350
BUOY 51100       NOT AVBL
BUOY 51002       2300   78 80  110/  4/  6 1014.8F   5/ 8   5/110
BUOY 51003       2300   78 82   40/  2/  4 1015.1F   4/12   5
BUOY 51004       2215   77 83   40/  2/  4 1014.8F   5/ 8   5/100
BARBERS PT BUOY  NOT AVBL
WAIMEA BAY BUOY  2300      79                N/A     2/14   2/270
KAILUA BAY BUOY  2300      79                N/A     3/12   2/150
LANAI BUOY       NOT AVBL
BARBERS PT 2     2300      78                N/A     3/15   2/210
PAUWELA MAUI     2300      80                N/A     3/ 8
HILO             2300      78                N/A     4/ 8
KANEOHE BAY BUOY 2300      78                N/A     2/ 8
HANALEI KAUAI    2300      78                N/A     3/10   2/310
KAHULUI HARBOR   2300   77 78  350/ 12/ 13 1014.2F
HONOLULU HARBOR  2300   77 79  230/  8/ 10 1014.6F
KILO NALU        NOT AVBL
HILO HARBOR      2300   84 76   80/  3/  8 1014.0F
MOKUOLOE         2300      78              1014.8S
NAWILIWILI       2300   73 80  350/  6/  9 1015.2S
WHOTS BUOY       NOT AVBL
BUOY 51028       NOT AVBL
$$

......................KEY........................................
  SKY/WX - SKY CONDITIONS/PRESENT WEATHER
  TMP    - TEMPERATURE IN FAHRENHEIT
  DWPT   - DEWPOINT IN FAHRENHEIT
  RH     - RELATIVE HUMIDITY IN PERCENT
  WIND   - DIRECTION AND SPEED /MPH FOR ISLANDS...KTS FOR BUOYS/
  PRES   - MEAN SEA LEVEL PRESSURE IN INCHES OF HG
  VSB    - VISIBILITY IN MILES
  HX     - HEAT INDEX
  WCI    - WIND CHILL INDEX
  VRB    - VARIABLE WIND DIRECTION
  N/A    - NOT AVAILABLE



USA.gov is the U.S. government's official web portal to all federal, state and local government web resources and services.